FW6790 Weather Reports


time (UTC)temp
C
wind
direction
speed
KPH
gust
KPH
rain 1hr
cm
rain 24hr
cm
rain mn
cm
humidity
%
barometer
mb
20260504234818 22 159 0.0 3.2 0.00 0.00 0.00 47 1011.9
20260504234313 23 159 1.6 6.4 0.00 0.00 0.00 46 1012.0
20260504233806 23 159 1.6 6.4 0.00 0.00 0.00 45 1012.0
20260504233301 23 157 1.6 4.8 0.00 0.00 0.00 44 1012.0
20260504232756 23 221 1.6 4.8 0.00 0.00 0.00 44 1012.2
20260504232249 24 149 1.6 4.8 0.00 0.00 0.00 43 1012.2
20260504231743 24 193 1.6 4.8 0.00 0.00 0.00 43 1012.2
20260504231237 24 121 1.6 8.0 0.00 0.00 0.00 42 1012.3
20260504230950 25 58 1.6 8.0 0.00 0.00 0.00 40 1012.3
20260504230835 25 58 1.6 8.0 0.00 0.00 0.00 40 1012.3
20260504230330 25 226 3.2 6.4 0.00 0.00 0.00 41 1012.3
20260504225946 25 121 3.2 8.0 0.00 0.00 0.00 39 1012.3
20260504225719 25 121 3.2 8.0 0.00 0.00 0.00 39 1012.3
20260504225213 25 164 1.6 8.0 0.00 0.00 0.00 40 1012.3
20260504224711 25 121 1.6 6.4 0.00 0.00 0.00 40 1012.3
20260504224211 25 123 1.6 11.3 0.00 0.00 0.00 40 1012.3
20260504223709 25 100 3.2 11.3 0.00 0.00 0.00 38 1012.3
20260504223210 25 197 3.2 14.5 0.00 0.00 0.00 39 1012.4
20260504222709 25 71 3.2 14.5 0.00 0.00 0.00 38 1012.4
20260504222209 25 156 3.2 9.7 0.00 0.00 0.00 38 1012.5
20260504221709 25 330 3.2 12.9 0.00 0.00 0.00 37 1012.5
20260504221207 25 239 3.2 12.9 0.00 0.00 0.00 36 1012.5
20260504220707 25 138 3.2 8.0 0.00 0.00 0.00 37 1012.5
20260504220207 25 112 3.2 11.3 0.00 0.00 0.00 37 1012.6
20260504215929 25 142 3.2 11.3 0.00 0.00 0.00 37 1012.7
20260504215707 25 142 3.2 11.3 0.00 0.00 0.00 37 1012.7
20260504215207 25 182 4.8 11.3 0.00 0.00 0.00 38 1012.7
20260504214705 25 355 4.8 11.3 0.00 0.00 0.00 37 1012.7
20260504214205 25 326 3.2 11.3 0.00 0.00 0.00 37 1012.8
20260504213701 25 262 3.2 12.9 0.00 0.00 0.00 41 1012.9
20260504213201 25 126 3.2 12.9 0.00 0.00 0.00 39 1012.9
20260504212700 25 21 3.2 9.7 0.00 0.00 0.00 38 1012.8
20260504212201 25 299 1.6 8.0 0.00 0.00 0.00 42 1012.8
20260504211701 25 119 1.6 6.4 0.00 0.00 0.00 41 1012.9
20260504211201 25 340 1.6 6.4 0.00 0.00 0.00 40 1012.9
20260504210934 25 190 1.6 8.0 0.00 0.00 0.00 40 1012.8
20260504210701 25 190 1.6 8.0 0.00 0.00 0.00 40 1012.8
20260504210201 25 136 3.2 9.7 0.00 0.00 0.00 41 1012.9
20260504205701 25 138 3.2 9.7 0.00 0.00 0.00 39 1012.8
20260504205201 25 105 3.2 9.7 0.00 0.00 0.00 39 1012.9
20260504204700 25 115 3.2 8.0 0.00 0.00 0.00 40 1012.8
20260504204201 25 111 1.6 8.0 0.00 0.00 0.00 40 1012.8
20260504203701 25 174 1.6 8.0 0.00 0.00 0.00 40 1012.9
20260504203426 25 135 1.6 8.0 0.00 0.00 0.00 39 1013.0
20260504203303 25 135 1.6 8.0 0.00 0.00 0.00 39 1013.0
20260504202657 25 150 3.2 9.7 0.00 0.00 0.00 42 1013.0
20260504202157 25 0 4.8 9.7 0.00 0.00 0.00 37 1013.1
20260504201657 25 207 3.2 12.9 0.00 0.00 0.00 36 1013.2
20260504201157 25 298 3.2 12.9 0.00 0.00 0.00 36 1013.2
20260504200656 25 219 3.2 9.7 0.00 0.00 0.00 37 1013.2
20260504200155 25 108 3.2 9.7 0.00 0.00 0.00 35 1013.4
20260504195654 25 154 3.2 9.7 0.00 0.00 0.00 39 1013.4
20260504195155 25 129 1.6 9.7 0.00 0.00 0.00 38 1013.4
20260504194654 25 115 1.6 6.4 0.00 0.00 0.00 41 1013.5
20260504194149 24 188 3.2 9.7 0.00 0.00 0.00 42 1013.7
20260504193919 24 196 4.8 9.7 0.00 0.00 0.00 41 1013.7
20260504193646 24 196 4.8 9.7 0.00 0.00 0.00 41 1013.7
20260504193136 24 211 4.8 14.5 0.00 0.00 0.00 46 1013.8
20260504192905 24 355 3.2 14.5 0.00 0.00 0.00 40 1013.9
20260504192734 24 355 3.2 14.5 0.00 0.00 0.00 40 1013.9
20260504192124 24 175 3.2 8.0 0.00 0.00 0.00 41 1013.9
20260504191857 24 168 1.6 8.0 0.00 0.00 0.00 44 1014.0
20260504191618 24 168 1.6 8.0 0.00 0.00 0.00 44 1014.0
20260504191329 24 123 1.6 8.0 0.00 0.00 0.00 45 1014.0
20260504191216 24 123 1.6 8.0 0.00 0.00 0.00 45 1014.0
20260504190606 24 331 3.2 8.0 0.00 0.00 0.00 42 1014.1
20260504190100 24 138 3.2 8.0 0.00 0.00 0.00 40 1014.1
20260504185554 24 188 3.2 9.7 0.00 0.00 0.00 43 1014.2
20260504185048 24 167 3.2 9.7 0.00 0.00 0.00 40 1014.3
20260504184928 24 308 3.2 8.0 0.00 0.00 0.00 42 1014.4
20260504184036 23 12 1.6 6.4 0.00 0.00 0.00 42 1014.5
20260504183530 24 130 3.2 6.4 0.00 0.00 0.00 42 1014.6
20260504183024 24 137 4.8 14.5 0.00 0.00 0.00 44 1014.6
20260504182518 24 13 3.2 14.5 0.00 0.00 0.00 43 1014.6
20260504182231 24 287 3.2 8.0 0.00 0.00 0.00 44 1014.7
20260504181507 24 321 3.2 9.7 0.00 0.00 0.00 43 1014.9
20260504181000 24 69 3.2 11.3 0.00 0.00 0.00 45 1014.8
20260504180837 23 355 3.2 11.3 0.00 0.00 0.00 45 1014.9
20260504180212 23 153 3.2 6.4 0.00 0.00 0.00 47 1015.0
20260504180053 23 153 3.2 6.4 0.00 0.00 0.00 47 1015.0
20260504175708 23 227 3.2 9.7 0.00 0.00 0.00 45 1014.9
20260504175441 23 227 3.2 9.7 0.00 0.00 0.00 45 1014.9
20260504174936 23 154 4.8 12.9 0.00 0.00 0.00 43 1015.0
20260504174431 23 342 3.2 12.9 0.00 0.00 0.00 42 1015.1
20260504173925 23 134 3.2 8.0 0.00 0.00 0.00 47 1015.1
20260504173418 23 186 3.2 8.0 0.00 0.00 0.00 48 1015.2
20260504172913 23 315 3.2 11.3 0.00 0.00 0.00 46 1015.3
20260504172406 23 148 3.2 11.3 0.00 0.00 0.00 47 1015.3
20260504171900 23 165 3.2 9.7 0.00 0.00 0.00 47 1015.5
20260504171354 22 24 4.8 12.9 0.00 0.00 0.00 46 1015.5
20260504170849 22 349 3.2 12.9 0.00 0.00 0.00 47 1015.6
20260504170342 22 31 3.2 12.9 0.00 0.00 0.00 46 1015.7
20260504160314 21 337 4.8 11.3 0.00 0.00 0.00 49 1016.4
20260504150811 19 341 3.2 9.7 0.00 0.00 0.00 58 1016.2
20260504150535 19 304 3.2 9.7 0.00 0.00 0.00 57 1016.3
20260504150310 19 304 3.2 9.7 0.00 0.00 0.00 57 1016.3
20260504141310 16 123 1.6 8.0 0.00 0.00 0.00 68 1016.5
20260504141033 16 176 1.6 8.0 0.00 0.00 0.00 68 1016.6
20260504140914 16 176 1.6 8.0 0.00 0.00 0.00 68 1016.6
20260504140534 16 215 1.6 6.4 0.00 0.00 0.00 72 1016.6
20260504140414 16 215 1.6 6.4 0.00 0.00 0.00 72 1016.6
20260504130215 11 40 1.6 4.8 0.00 0.00 0.00 90 1016.9
20260504120113 7 355 0.0 1.6 0.00 0.00 0.00 94 1016.4
20260504110457 6 253 0.0 1.6 0.00 0.00 0.00 92 1015.9
20260504100415 6 346 0.0 0.0 0.00 0.00 0.00 90 1016.1
20260504081845 7 282 0.0 0.0 0.00 0.00 0.00 88 1015.9
20260504081345 7 282 0.0 0.0 0.00 0.00 0.00 88 1015.9
20260504081109 7 282 0.0 0.0 0.00 0.00 0.00 88 1016.0
20260504080950 7 282 0.0 0.0 0.00 0.00 0.00 88 1016.0
20260504080611 7 282 0.0 0.0 0.00 0.00 0.00 88 1016.0
20260504080449 7 282 0.0 0.0 0.00 0.00 0.00 88 1016.0
20260504070333 7 282 0.0 0.0 0.00 0.00 0.00 87 1016.2
20260504060237 8 282 0.0 0.0 0.00 0.00 0.00 85 1016.6
20260504050730 8 261 0.0 0.0 0.00 0.00 0.00 83 1017.3
20260504050454 8 261 0.0 0.0 0.00 0.00 0.00 83 1017.4
20260504050230 8 261 0.0 0.0 0.00 0.00 0.00 83 1017.4
20260504045954 8 261 0.0 0.0 0.00 0.00 0.00 83 1017.3
20260504045227 8 261 0.0 0.0 0.00 0.00 0.00 83 1017.1
20260504044725 8 261 0.0 0.0 0.00 0.00 0.00 83 1017.1
20260504044224 8 261 0.0 0.0 0.00 0.00 0.00 83 1017.1
20260504043723 9 261 0.0 0.0 0.00 0.00 0.00 82 1017.3
20260504043216 9 259 0.0 0.0 0.00 0.00 0.00 81 1017.3
20260504042709 9 259 0.0 0.0 0.00 0.00 0.00 80 1017.3
20260504042426 9 259 0.0 0.0 0.00 0.00 0.00 80 1017.4
20260504042307 9 259 0.0 0.0 0.00 0.00 0.00 80 1017.4
20260504041657 9 259 0.0 0.0 0.00 0.00 0.00 79 1017.4
20260504041151 9 259 0.0 0.0 0.00 0.00 0.00 79 1017.4
20260504040902 9 259 0.0 0.0 0.00 0.00 0.00 80 1017.4
20260504040750 9 259 0.0 0.0 0.00 0.00 0.00 80 1017.4
20260504040138 9 259 0.0 0.0 0.00 0.00 0.00 79 1017.4
20260504035633 9 259 0.0 0.0 0.00 0.00 0.00 78 1017.5
20260504035356 10 259 0.0 0.0 0.00 0.00 0.00 78 1017.6
20260504035127 10 259 0.0 0.0 0.00 0.00 0.00 78 1017.6
20260504034620 10 259 0.0 0.0 0.00 0.00 0.00 78 1017.7
20260504034346 10 259 0.0 0.0 0.00 0.00 0.00 78 1017.8
20260504033608 10 259 0.0 0.0 0.00 0.00 0.00 78 1017.8
20260504033103 10 259 0.0 0.0 0.00 0.00 0.00 78 1017.8
20260504032557 10 259 0.0 0.0 0.00 0.00 0.00 76 1017.8
20260504032314 10 259 0.0 0.0 0.00 0.00 0.00 76 1017.8
20260504032051 10 259 0.0 0.0 0.00 0.00 0.00 76 1017.8
20260504031545 10 259 0.0 0.0 0.00 0.00 0.00 76 1017.8
20260504031039 10 259 0.0 0.0 0.00 0.00 0.00 75 1017.8
20260504030533 10 259 0.0 0.0 0.00 0.00 0.00 75 1017.8
20260504030027 10 259 0.0 0.0 0.00 0.00 0.00 74 1017.8
20260504025520 11 259 0.0 0.0 0.00 0.00 0.00 74 1017.8
20260504025015 11 259 0.0 0.0 0.00 0.00 0.00 73 1017.6
20260504024509 11 259 0.0 0.0 0.00 0.00 0.00 73 1017.5
20260504024234 11 259 0.0 0.0 0.00 0.00 0.00 72 1017.5
20260504024003 11 259 0.0 0.0 0.00 0.00 0.00 72 1017.5
20260504023458 11 259 0.0 0.0 0.00 0.00 0.00 71 1017.5
20260504022951 11 259 0.0 0.0 0.00 0.00 0.00 71 1017.4
20260504022445 11 259 0.0 0.0 0.00 0.00 0.00 70 1017.5
20260504021939 11 259 0.0 0.0 0.00 0.00 0.00 70 1017.4
20260504021434 11 259 0.0 0.0 0.00 0.00 0.00 70 1017.3
20260504021153 12 259 0.0 0.0 0.00 0.00 0.00 68 1017.1
20260504020927 12 259 0.0 0.0 0.00 0.00 0.00 68 1017.1
20260504020420 12 259 0.0 0.0 0.00 0.00 0.00 67 1017.1
20260504020136 12 259 0.0 0.0 0.00 0.00 0.00 67 1017.1
20260504020019 12 259 0.0 0.0 0.00 0.00 0.00 67 1017.1
20260504015409 12 259 0.0 0.0 0.00 0.00 0.00 66 1017.0
20260504015126 12 259 0.0 0.0 0.00 0.00 0.00 66 1017.0
20260504014902 12 259 0.0 0.0 0.00 0.00 0.00 66 1017.0
20260504014357 12 259 0.0 0.0 0.00 0.00 0.00 65 1016.9
20260504014109 13 259 0.0 0.0 0.00 0.00 0.00 66 1016.9
20260504013956 13 259 0.0 0.0 0.00 0.00 0.00 66 1016.9
20260504013345 13 259 0.0 0.0 0.00 0.00 0.00 64 1016.8
20260504012839 13 259 0.0 0.0 0.00 0.00 0.00 65 1016.8
20260504012333 13 259 0.0 0.0 0.00 0.00 0.00 64 1016.8
20260504012059 13 259 0.0 0.0 0.00 0.00 0.00 64 1016.8
20260504011827 13 259 0.0 0.0 0.00 0.00 0.00 64 1016.8
20260504011322 13 259 0.0 0.0 0.00 0.00 0.00 63 1016.8
20260504010815 14 259 0.0 0.0 0.00 0.00 0.00 62 1016.8
20260504010309 14 259 0.0 1.6 0.00 0.00 0.00 62 1016.8
20260504010030 14 259 1.6 3.2 0.00 0.00 0.00 64 1016.7
20260504005802 14 259 1.6 3.2 0.00 0.00 0.00 64 1016.7
20260504005257 15 259 1.6 3.2 0.00 0.00 0.00 63 1016.6
20260504004855 15 259 0.0 3.2 0.00 0.00 0.00 62 1016.7
20260504004245 15 259 0.0 0.0 0.00 0.00 0.00 61 1016.6
20260504004108 15 259 0.0 1.6 0.00 0.00 0.00 61 1016.6
20260504004006 15 259 0.0 1.6 0.00 0.00 0.00 61 1016.6
20260504003505 15 97 0.0 3.2 0.00 0.00 0.00 61 1016.5
20260504003233 15 97 0.0 3.2 0.00 0.00 0.00 61 1016.5
20260504002733 16 229 1.6 3.2 0.00 0.00 0.00 61 1016.5
20260504002233 16 229 1.6 3.2 0.00 0.00 0.00 60 1016.5
20260504002059 16 229 1.6 3.2 0.00 0.00 0.00 58 1016.4
20260504001231 16 229 1.6 3.2 0.00 0.00 0.00 57 1016.4
20260504000729 17 229 1.6 3.2 0.00 0.00 0.00 56 1016.4
20260504000227 17 256 1.6 3.2 0.00 0.00 0.00 52 1016.5
20260503235727 17 256 0.0 3.2 0.00 0.00 0.00 50 1016.5
20260503235453 18 256 1.6 3.2 0.00 0.00 0.00 51 1016.5
20260503235226 18 256 1.6 3.2 0.00 0.00 0.00 51 1016.5